TimeMST,TemperatureF,Dew PointF,Humidity,Sea Level PressureIn,VisibilityMPH,Wind Direction,Wind SpeedMPH,Gust SpeedMPH,PrecipitationIn,Events,Conditions,WindDirDegrees,DateUTC
12:56 AM,66.0,64.0,93,29.94,10.0,SSW,4.6,-,N/A,,Clear,200,2013-08-03 07:56:00
1:56 AM,66.0,64.0,93,29.91,10.0,East,5.8,-,N/A,,Clear,90,2013-08-03 08:56:00
2:56 AM,66.0,63.0,90,29.92,10.0,East,3.5,-,N/A,,Clear,90,2013-08-03 09:56:00
3:56 AM,66.0,63.0,90,29.94,10.0,East,3.5,-,N/A,,Clear,90,2013-08-03 10:56:00
4:56 AM,64.0,62.1,93,29.96,10.0,Calm,Calm,-,N/A,,Clear,0,2013-08-03 11:56:00
5:56 AM,64.9,63.0,93,29.97,10.0,East,3.5,-,N/A,,Clear,100,2013-08-03 12:56:00
6:56 AM,68.0,64.9,90,29.99,10.0,Calm,Calm,-,N/A,,Clear,0,2013-08-03 13:56:00
7:56 AM,72.0,63.0,73,29.99,10.0,Calm,Calm,-,N/A,,Clear,0,2013-08-03 14:56:00
8:56 AM,75.0,64.0,69,29.99,10.0,Calm,Calm,-,N/A,,Clear,0,2013-08-03 15:56:00
9:56 AM,79.0,62.1,56,29.98,10.0,Calm,Calm,-,N/A,,Clear,0,2013-08-03 16:56:00
10:56 AM,81.0,62.1,52,29.97,10.0,Calm,Calm,-,N/A,,Clear,0,2013-08-03 17:56:00
11:56 AM,84.9,60.1,43,29.94,10.0,North,4.6,-,N/A,,Clear,10,2013-08-03 18:56:00
12:56 PM,86.0,59.0,40,29.94,10.0,WSW,3.5,-,N/A,,Clear,240,2013-08-03 19:56:00
1:56 PM,88.0,57.0,35,29.91,10.0,West,5.8,-,N/A,,Clear,260,2013-08-03 20:56:00
2:56 PM,89.1,57.9,35,29.88,10.0,NW,4.6,-,N/A,,Clear,310,2013-08-03 21:56:00
3:56 PM,89.1,59.0,36,29.86,10.0,Calm,Calm,-,N/A,,Clear,0,2013-08-03 22:56:00
4:56 PM,87.1,62.1,43,29.88,10.0,SW,5.8,-,N/A,,Clear,230,2013-08-03 23:56:00
5:56 PM,84.9,70.0,61,29.87,10.0,South,3.5,-,N/A,,Clear,190,2013-08-04 00:56:00
6:56 PM,82.9,70.0,65,29.87,10.0,SSW,3.5,-,N/A,,Clear,210,2013-08-04 01:56:00
7:56 PM,80.1,68.0,67,29.88,10.0,SW,3.5,-,N/A,,Clear,220,2013-08-04 02:56:00
8:56 PM,79.0,70.0,74,29.90,10.0,Calm,Calm,-,N/A,,Clear,0,2013-08-04 03:56:00
9:56 PM,77.0,70.0,79,29.90,10.0,Calm,Calm,-,N/A,,Clear,0,2013-08-04 04:56:00
10:56 PM,75.9,68.0,76,29.91,10.0,East,4.6,-,N/A,,Clear,80,2013-08-04 05:56:00
11:56 PM,73.9,66.9,79,29.91,10.0,ESE,6.9,-,N/A,,Clear,120,2013-08-04 06:56:00